Powrót do katalogu

OPS 4682 DEB

AktywnyPO
NORAD 19593·DEBRIS·🇺🇸 United States

Wystrzelony Apr 3, 1965 z Vandenberg Space Force Base

Loading…

Następne Przeloty (najbliższe 24 godziny)

TLE

ŚwieżeSource: Space-Track

Epoka: Sep 11, 2026, 19:37 UTC

1 19593U 65027AW  26254.81801757 -.00000165  00000-0 -60547-3 0  9992
2 19593  90.2488   8.5258 0027733 247.3938 268.0685 12.95812968813330

Śledź OPS 4682 DEB w czasie rzeczywistym z AllMySat

Download on the App Store